Location: Peebles
(55.6412°N, 3.1714°W)
Time: 21:06:34
(UTC+01:00)

deb Kosmos-2123 - Pass Details

Date: 08 July 2022
Orbit: 942 x 985 km, 82.9° (Epoch: 17 August)

Event Time Altitude Azimuth Distance (km) Brightness Sun altitude
Exits shadow 02:32:37 - 224° (SW) 2,796 ? -10.3°
Reaches altitude 10° 02:32:48 10° 224° (SW) 2,737 ? -10.3°
Maximum altitude 02:38:40 40° 294° (WNW) 1,406 ? -10.0°
Drops below altitude 10° 02:44:33 10° 3° (N) 2,732 ? -9.7°
Sets 02:47:14 0° 11° (N) 3,676 ? -9.6°
